Zurück zum Katalog

STARLINK-11682

AktivKommunikationVLEO
NORAD 64234·PAYLOAD·🇺🇸 United States

Gestartet Jun 3, 2025 von Cape Canaveral Space Force Station

Loading…

Nächste Überflüge (nächste 24 Stunden)

TLE

AktuellSource: CelesTrak SupGP

Epoche: Sep 15, 2026, 03:31 UTC

1 64234C 25119B   26258.14701389  .00110300  00000+0  85647-3 0  2588
2 64234  43.0003 147.6372 0001535 268.0267 169.1756 15.70789428    13

Verfolge STARLINK-11682 in Echtzeit mit AllMySat

Download on the App Store